{"data":{"norad_id":59802,"intl_designator":"2024-093W","name":"STARLINK-31814","alt_names":[],"object_type":"PAYLOAD","status":"ACTIVE","operator":null,"country":"US","launch_date":"2024-05-18","launch_site_code":"AFETR","launch_vehicle":null,"mission":null,"orbit_class":"UNKNOWN","rcs_meters":null,"size_class":null,"mass_kg":null,"dimensions":null,"purposes":["comms"],"wikipedia_slug":null,"has_3d_model":false,"image_url":null,"decayed_at":null,"tle_current":{"epoch":"2026-09-21T05:11:03.253632Z","epoch_age_seconds":112574,"freshness":"FRESH","line1":"1 59802U 24093W   26264.21600988  .00000050  00000+0  11347-4 0  9990","line2":"2 59802  43.0015 185.0744 0000803 259.4528 100.6233 15.27575445132594","mean_motion":15.27575445,"eccentricity":8.03e-5,"inclination_deg":43.0015,"raan_deg":185.0744,"arg_perigee_deg":259.4528,"mean_anomaly_deg":100.6233,"bstar":1.1347e-5,"rev_number":13259,"period_min":94.267029802904,"perigee_km":482.51178104345,"apogee_km":483.61368972095,"semimajor_km":6861.1997353822,"source":"CELESTRAK","updated_at":"2026-09-22T09:00:49.074973Z"}}}